Radiation Dose at Monitoring Post of Fukushima Daini Nuclear Power Station
Date,Time,MP-1(microSv/h),MP-2(microSv/h),MP-3(microSv/h),MP-4(microSv/h),MP-5(microSv/h),MP-6(microSv/h),MP-7(microSv/h),Wind Direction,Wind Velocity(m/s),Rain
2020/01/13,00:00,0.181,0.162,0.275,0.256,0.253,0.140,0.086,west-southwest,1.6,No
2020/01/13,00:10,0.182,0.163,0.275,0.256,0.254,0.141,0.086,west-southwest,1.1,No
2020/01/13,00:20,0.182,0.162,0.274,0.256,0.253,0.140,0.087,west,1.8,No
2020/01/13,00:30,0.182,0.162,0.275,0.255,0.252,0.140,0.086,west,0.9,No
2020/01/13,00:40,0.182,0.162,0.275,0.256,0.253,0.140,0.086,north-northwest,1.0,No
2020/01/13,00:50,0.182,0.162,0.274,0.257,0.253,0.140,0.086,west-northwest,0.7,No
2020/01/13,01:00,0.182,0.163,0.275,0.258,0.254,0.140,0.087,north-northwest,0.9,No
2020/01/13,01:10,0.181,0.162,0.275,0.256,0.255,0.140,0.087,north-northwest,0.9,No
2020/01/13,01:20,0.182,0.163,0.275,0.257,0.253,0.140,0.086,north-northwest,0.7,No
2020/01/13,01:30,0.181,0.162,0.276,0.256,0.253,0.141,0.087,-,CALM,No
2020/01/13,01:40,0.182,0.163,0.275,0.257,0.251,0.139,0.086,northwest,0.8,No
2020/01/13,01:50,0.182,0.163,0.276,0.255,0.254,0.140,0.087,-,CALM,No
2020/01/13,02:00,0.181,0.162,0.275,0.255,0.254,0.140,0.087,-,CALM,No
2020/01/13,02:10,0.181,0.163,0.275,0.257,0.254,0.140,0.087,-,CALM,No
2020/01/13,02:20,0.182,0.162,0.274,0.257,0.252,0.140,0.087,north-northwest,1.1,No
2020/01/13,02:30,0.181,0.163,0.274,0.256,0.253,0.139,0.086,west,0.8,No
2020/01/13,02:40,0.181,0.163,0.274,0.256,0.254,0.140,0.085,northwest,2.0,No
2020/01/13,02:50,0.182,0.162,0.277,0.255,0.252,0.140,0.086,northwest,1.8,No
2020/01/13,03:00,0.182,0.163,0.275,0.257,0.254,0.140,0.086,north-northwest,0.8,No
2020/01/13,03:10,0.181,0.162,0.275,0.257,0.253,0.140,0.086,-,CALM,No
2020/01/13,03:20,0.181,0.163,0.275,0.257,0.253,0.140,0.086,-,CALM,No
2020/01/13,03:30,0.183,0.164,0.277,0.255,0.254,0.139,0.087,north,1.3,No
2020/01/13,03:40,0.183,0.163,0.276,0.257,0.253,0.140,0.087,north-northwest,2.0,No
2020/01/13,03:50,0.181,0.162,0.275,0.255,0.254,0.141,0.086,north-northwest,2.1,No
2020/01/13,04:00,0.182,0.163,0.276,0.256,0.254,0.141,0.087,north,2.0,No
2020/01/13,04:10,0.183,0.163,0.276,0.255,0.254,0.141,0.087,north,1.9,No
2020/01/13,04:20,0.182,0.162,0.274,0.257,0.255,0.140,0.087,north-northeast,2.8,No
2020/01/13,04:30,0.181,0.163,0.276,0.257,0.253,0.141,0.087,north,4.1,No
2020/01/13,04:40,0.183,0.163,0.275,0.257,0.255,0.140,0.086,north,3.8,No
2020/01/13,04:50,0.181,0.163,0.275,0.257,0.254,0.140,0.087,north,4.4,No
2020/01/13,05:00,0.181,0.163,0.275,0.256,0.254,0.141,0.087,north-northwest,5.5,No
2020/01/13,05:10,0.182,0.163,0.275,0.258,0.253,0.141,0.087,north-northwest,5.3,No
2020/01/13,05:20,0.182,0.163,0.278,0.256,0.254,0.141,0.087,north,4.6,No
2020/01/13,05:30,0.181,0.163,0.275,0.257,0.254,0.140,0.086,north-northwest,4.6,No
2020/01/13,05:40,0.182,0.163,0.275,0.256,0.254,0.140,0.086,north,5.1,No
2020/01/13,05:50,0.183,0.163,0.276,0.257,0.253,0.141,0.087,north-northwest,5.0,No
2020/01/13,06:00,0.182,0.164,0.275,0.256,0.253,0.141,0.087,north-northwest,5.0,No
2020/01/13,06:10,0.182,0.163,0.276,0.256,0.255,0.140,0.087,north-northwest,5.6,No
2020/01/13,06:20,0.183,0.162,0.275,0.257,0.253,0.140,0.087,north-northwest,5.3,No
2020/01/13,06:30,0.183,0.164,0.276,0.256,0.255,0.141,0.086,north-northwest,4.9,No
2020/01/13,06:40,0.183,0.163,0.276,0.257,0.254,0.141,0.086,north-northwest,5.0,No
2020/01/13,06:50,0.182,0.163,0.276,0.257,0.254,0.141,0.087,north-northwest,5.3,No
2020/01/13,07:00,0.182,0.162,0.275,0.257,0.254,0.141,0.087,north-northwest,5.2,No
2020/01/13,07:10,0.183,0.164,0.275,0.257,0.255,0.141,0.086,north-northwest,5.6,No
2020/01/13,07:20,0.182,0.163,0.276,0.256,0.254,0.141,0.087,north-northwest,6.4,No
2020/01/13,07:30,0.181,0.162,0.275,0.257,0.254,0.141,0.086,north-northwest,6.5,No
2020/01/13,07:40,0.183,0.164,0.276,0.258,0.254,0.141,0.087,north-northwest,6.0,No
2020/01/13,07:50,0.182,0.164,0.276,0.256,0.253,0.140,0.087,north-northwest,6.2,No
2020/01/13,08:00,0.182,0.162,0.276,0.256,0.252,0.141,0.086,north-northwest,6.1,No
2020/01/13,08:10,0.182,0.162,0.276,0.256,0.252,0.141,0.086,north-northwest,6.4,No
2020/01/13,08:20,0.183,0.163,0.275,0.256,0.253,0.140,0.086,north-northwest,5.9,No
2020/01/13,08:30,0.182,0.163,0.276,0.257,0.253,0.141,0.087,north-northwest,5.5,Yes
2020/01/13,08:40,0.182,0.163,0.275,0.257,0.254,0.140,0.086,north-northwest,4.5,No
2020/01/13,08:50,0.182,0.162,0.275,0.255,0.254,0.141,0.085,north-northwest,3.9,No
2020/01/13,09:00,0.183,0.163,0.276,0.257,0.253,0.140,0.085,north-northwest,4.3,No
2020/01/13,09:10,0.183,0.163,0.276,0.257,0.254,0.140,0.087,north-northwest,3.6,No
2020/01/13,09:20,0.183,0.163,0.277,0.255,0.252,0.141,0.087,north-northwest,3.6,No
2020/01/13,09:30,0.181,0.163,0.275,0.257,0.254,0.140,0.086,north-northwest,4.7,No
2020/01/13,09:40,0.182,0.162,0.276,0.255,0.255,0.141,0.087,north-northwest,4.2,No
2020/01/13,09:50,0.182,0.162,0.276,0.255,0.254,0.140,0.087,north-northwest,4.7,No
2020/01/13,10:00,0.181,0.163,0.275,0.256,0.254,0.140,0.086,north-northwest,4.7,No
2020/01/13,10:10,0.181,0.162,0.273,0.254,0.253,0.140,0.086,north-northwest,5.0,No
2020/01/13,10:20,0.182,0.163,0.275,0.256,0.253,0.139,0.085,north-northwest,4.8,No
2020/01/13,10:30,0.181,0.163,0.274,0.256,0.252,0.140,0.086,north-northwest,4.2,No
2020/01/13,10:40,0.182,0.163,0.274,0.255,0.252,0.141,0.086,northwest,3.7,No
2020/01/13,10:50,0.181,0.163,0.275,0.257,0.254,0.141,0.086,north-northwest,4.6,No
2020/01/13,11:00,0.182,0.163,0.274,0.255,0.252,0.140,0.086,north-northwest,4.3,No
2020/01/13,11:10,0.181,0.162,0.274,0.255,0.255,0.140,0.086,north,4.1,No
2020/01/13,11:20,0.181,0.163,0.276,0.256,0.252,0.141,0.086,north,5.6,No
2020/01/13,11:30,0.181,0.161,0.275,0.255,0.253,0.140,0.084,north,5.5,No
2020/01/13,11:40,0.182,0.162,0.274,0.257,0.254,0.139,0.085,north,7.0,No
2020/01/13,11:50,0.182,0.162,0.275,0.255,0.254,0.140,0.086,north,5.8,No
2020/01/13,12:00,0.180,0.162,0.274,0.256,0.254,0.140,0.086,north,6.4,No
2020/01/13,12:10,0.181,0.163,0.274,0.254,0.252,0.140,0.086,north,5.5,No
2020/01/13,12:20,0.181,0.162,0.275,0.255,0.254,0.139,0.085,north,6.2,No
2020/01/13,12:30,0.181,0.162,0.275,0.256,0.253,0.140,0.086,north,5.1,No
2020/01/13,12:40,0.182,0.162,0.274,0.256,0.253,0.140,0.086,north,5.6,No
2020/01/13,12:50,0.182,0.162,0.275,0.256,0.254,0.141,0.085,north,7.3,No
2020/01/13,13:00,0.181,0.162,0.275,0.255,0.254,0.140,0.086,north,6.3,No
2020/01/13,13:10,0.181,0.162,0.275,0.256,0.254,0.141,0.086,north,6.8,No
2020/01/13,13:20,0.182,0.162,0.274,0.256,0.255,0.140,0.086,north,6.2,No
2020/01/13,13:30,0.181,0.162,0.275,0.255,0.254,0.140,0.086,north,7.6,No
2020/01/13,13:40,0.182,0.162,0.275,0.255,0.254,0.140,0.086,north,8.9,No
2020/01/13,13:50,0.182,0.161,0.276,0.255,0.253,0.140,0.086,north,7.5,No
2020/01/13,14:00,0.182,0.163,0.275,0.256,0.253,0.140,0.086,north,7.1,No
2020/01/13,14:10,0.181,0.161,0.275,0.257,0.254,0.140,0.086,north-northwest,7.5,No
2020/01/13,14:20,0.182,0.163,0.274,0.256,0.253,0.141,0.086,north-northwest,6.0,No
2020/01/13,14:30,0.181,0.161,0.275,0.255,0.253,0.140,0.086,north,5.3,No
2020/01/13,14:40,0.180,0.163,0.276,0.258,0.255,0.140,0.086,north,6.5,No
2020/01/13,14:50,0.182,0.163,0.276,0.257,0.254,0.140,0.087,north,6.1,No
2020/01/13,15:00,0.182,0.163,0.274,0.255,0.253,0.139,0.085,north,5.8,No
2020/01/13,15:10,0.182,0.162,0.277,0.257,0.254,0.140,0.086,north,4.0,No
2020/01/13,15:20,0.181,0.162,0.275,0.256,0.253,0.140,0.085,north,3.7,No
2020/01/13,15:30,0.181,0.162,0.276,0.256,0.253,0.139,0.085,north,5.0,No
2020/01/13,15:40,0.182,0.163,0.275,0.256,0.254,0.139,0.086,north,5.3,No
2020/01/13,15:50,0.181,0.163,0.275,0.256,0.253,0.139,0.086,north,5.2,No
2020/01/13,16:00,0.181,0.162,0.275,0.256,0.254,0.140,0.085,north,5.4,No
2020/01/13,16:10,0.182,0.162,0.274,0.256,0.253,0.140,0.086,north,5.5,No
2020/01/13,16:20,0.180,0.162,0.276,0.257,0.253,0.139,0.086,north-northwest,4.7,No
2020/01/13,16:30,0.181,0.161,0.276,0.256,0.253,0.140,0.085,north-northwest,6.1,No
2020/01/13,16:40,0.180,0.162,0.275,0.256,0.254,0.139,0.086,north-northwest,5.9,No
2020/01/13,16:50,0.182,0.163,0.276,0.255,0.253,0.140,0.086,north-northwest,4.9,No
2020/01/13,17:00,0.181,0.162,0.275,0.259,0.254,0.141,0.086,northwest,5.1,No
2020/01/13,17:10,0.181,0.162,0.275,0.256,0.254,0.140,0.086,north-northwest,5.7,No
2020/01/13,17:20,0.181,0.162,0.275,0.257,0.252,0.140,0.085,north-northwest,5.8,No
2020/01/13,17:30,0.181,0.163,0.274,0.257,0.254,0.140,0.086,north-northwest,5.9,No
2020/01/13,17:40,0.180,0.163,0.276,0.257,0.254,0.140,0.086,north-northwest,6.4,No
2020/01/13,17:50,0.182,0.163,0.276,0.256,0.253,0.140,0.086,north-northwest,5.9,No
2020/01/13,18:00,0.181,0.162,0.274,0.257,0.254,0.140,0.086,north-northwest,5.7,No
2020/01/13,18:10,0.181,0.163,0.276,0.258,0.255,0.140,0.086,northwest,6.0,No
2020/01/13,18:20,0.181,0.163,0.276,0.257,0.253,0.139,0.086,northwest,6.2,No
2020/01/13,18:30,0.181,0.162,0.275,0.254,0.253,0.139,0.086,northwest,6.3,No
2020/01/13,18:40,0.181,0.163,0.275,0.256,0.253,0.140,0.086,northwest,5.7,No
2020/01/13,18:50,0.181,0.163,0.275,0.256,0.253,0.139,0.086,northwest,5.5,No
2020/01/13,19:00,0.182,0.163,0.274,0.257,0.253,0.139,0.085,northwest,5.8,No
2020/01/13,19:10,0.182,0.162,0.276,0.256,0.252,0.140,0.086,northwest,5.8,No
2020/01/13,19:20,0.182,0.162,0.276,0.257,0.253,0.140,0.086,northwest,5.6,No
2020/01/13,19:30,0.182,0.163,0.273,0.256,0.253,0.139,0.086,northwest,5.4,No
2020/01/13,19:40,0.180,0.164,0.276,0.257,0.253,0.139,0.085,northwest,5.2,No
2020/01/13,19:50,0.181,0.162,0.275,0.255,0.254,0.140,0.087,northwest,4.4,No
2020/01/13,20:00,0.182,0.162,0.275,0.256,0.253,0.140,0.087,northwest,4.3,No
2020/01/13,20:10,0.181,0.162,0.274,0.257,0.253,0.140,0.087,northwest,3.9,No
2020/01/13,20:20,0.182,0.162,0.274,0.256,0.253,0.139,0.086,northwest,3.7,No
2020/01/13,20:30,0.182,0.163,0.275,0.256,0.253,0.139,0.086,north-northwest,4.1,No
2020/01/13,20:40,0.182,0.162,0.275,0.256,0.253,0.140,0.087,north-northwest,4.4,No
2020/01/13,20:50,0.184,0.162,0.275,0.256,0.253,0.140,0.087,northwest,4.0,No
2020/01/13,21:00,0.181,0.163,0.274,0.256,0.254,0.140,0.086,northwest,3.5,No
2020/01/13,21:10,0.182,0.163,0.276,0.255,0.252,0.140,0.087,northwest,3.6,No
2020/01/13,21:20,0.181,0.162,0.275,0.257,0.253,0.140,0.086,northwest,3.6,No
2020/01/13,21:30,0.183,0.162,0.276,0.256,0.253,0.140,0.086,west-northwest,3.1,No
2020/01/13,21:40,0.182,0.162,0.275,0.256,0.253,0.139,0.086,north-northwest,3.1,No
2020/01/13,21:50,0.181,0.163,0.275,0.257,0.252,0.140,0.086,north-northwest,3.4,Yes
2020/01/13,22:00,0.184,0.165,0.278,0.259,0.256,0.142,0.088,north-northwest,4.8,Yes
2020/01/13,22:10,0.185,0.167,0.279,0.259,0.256,0.143,0.089,northwest,6.6,Yes
2020/01/13,22:20,0.185,0.167,0.279,0.259,0.256,0.144,0.089,northwest,7.6,Yes
2020/01/13,22:30,0.187,0.168,0.280,0.260,0.257,0.145,0.091,northwest,7.1,Yes
2020/01/13,22:40,0.188,0.168,0.281,0.262,0.258,0.146,0.092,northwest,7.4,Yes
2020/01/13,22:50,0.188,0.168,0.283,0.262,0.258,0.146,0.093,north-northwest,6.8,Yes
2020/01/13,23:00,0.188,0.171,0.281,0.262,0.259,0.145,0.092,north-northwest,7.3,Yes
2020/01/13,23:10,0.189,0.171,0.282,0.262,0.260,0.147,0.093,northwest,7.0,No
2020/01/13,23:20,0.189,0.169,0.281,0.262,0.257,0.145,0.092,northwest,7.6,No
2020/01/13,23:30,0.188,0.168,0.281,0.261,0.257,0.144,0.091,northwest,7.3,No
2020/01/13,23:40,0.187,0.168,0.279,0.259,0.257,0.143,0.091,northwest,7.0,No
2020/01/13,23:50,0.187,0.166,0.278,0.259,0.256,0.142,0.089,northwest,7.4,No
